sat.trackr.live / text

‹ back to catalog

STARLINK-32141

NORAD 60290 · 2024-132N

PAYLOAD ACTIVE UNKNOWN

§ Identity

Operator
Country
US
Launch date
2024-07-28
Launch site
AFETR
Launch vehicle
Mass (kg)
RCS (m²)

Purposes: comms

External: N2YO · Heavens-Above · Gunter

§ Orbital elements

Epoch: 2026-09-21T14:36:39.543264Z

Period
93.85 min
Inclination
53.1591°
Eccentricity
0.0001366
Mean motion
15.34389238 rev/d
Perigee alt
461.8 km
Apogee alt
463.7 km
Semi-major
6,840.9 km
B*
-2.2258e-5
RAAN
220.4812°
Arg perigee
85.4537°
Mean anomaly
274.6622°
Rev number
12,158

§ Raw data

STARLINK-321411 60290U 24132N   26264.60879101 -.00001128  00000+0 -22258-4 0  99972 60290  53.1591 220.4812 0001366  85.4537 274.6622 15.34389238121582

JSON: /api/v1/satellites/60290 · /tle

For live sub-satellite position, see the globe view (requires WebGL).

§ Visibility from observer

Set your observer location to see the next 7 days of passes ≥ 10°. The values pass through the URL so the page stays shareable.

No JS? Fill the form by hand. The geolocation button needs JavaScript.